Weather History for Cumberland, WI

Change the Weather History Date:

Friday, November 23, 2012

  Actual Average (KRPD) Record (KRPD)
Temperature  
Mean Temperature 20 °F -  
Max Temperature 23 °F 35 °F 55 °F (2001)
Min Temperature 15 °F 21 °F 4 °F (2013)
Degree Days  
Heating Degree Days 45    
Moisture  
Dew Point 15 °F    
Average Humidity 79    
Maximum Humidity 93    
Minimum Humidity 68    
Precipitation  
Precipitation 0.00 in - - ()
Sea Level Pressure  
Sea Level Pressure 30.12 in    
Wind  
Wind Speed 19 mph (NW)    
Max Wind Speed 26 mph    
Max Gust Speed 32 mph    
Visibility 7 miles    
Events Snow    
Averages and records for this station are not official NWS values.
T = Trace of Precipitation, MM = Missing Value Source: NWS Daily Summary

Daily Weather History Graph

Daily Weather History Graph

Search for Another Location

Airport:

Trip Planner

Search our weather history database for the weather conditions in past years. The results will help you decide how hot, cold, wet, or windy it might be!

Date:

Astronomy

Nov. 23, 2012 Rise Set
Actual Time 7:18 AM CST 4:30 PM CST
Civil Twilight 6:45 AM CST 5:03 PM CST
Nautical Twilight 6:09 AM CST 5:39 PM CST
Astronomical Twilight 5:33 AM CST 6:14 PM CST
Moon 1:55 PM CST (11/23) 2:26 AM CST (11/23)
Length of Visible Light 10h 17m
Length of Day
9h 11m
Waxing Gibbous, 80% of the Moon is Illuminated
Nov 23
Waxing Gibbous
Nov 28
Full
Dec 6
Last Quarter
Dec 13
New
Dec 19
First Quarter

Hourly Weather History & Observations

Time (CST) Temp. Windchill Dew Point Humidity Pressure Visibility Wind Dir Wind Speed Gust Speed Precip Events Conditions
12:15 AM 23.0 °F 8.3 °F 19.4 °F 86% 29.84 in 10.0 mi West 19.6 mph 25.3 mph N/A   Overcast
12:35 AM 23.0 °F 8.0 °F 19.4 °F 86% 29.84 in 10.0 mi West 20.7 mph 28.8 mph N/A   Overcast
12:55 AM 23.0 °F 8.0 °F 19.4 °F 86% 29.84 in 7.0 mi West 20.7 mph 27.6 mph N/A   Overcast
1:15 AM 21.2 °F 4.9 °F 19.4 °F 93% 29.84 in 2.0 mi West 23.0 mph 27.6 mph N/A Snow Light Snow
1:35 AM 21.2 °F 5.6 °F 19.4 °F 93% 29.85 in 1.5 mi West 20.7 mph 27.6 mph N/A Snow Light Snow
1:55 AM 21.2 °F 5.6 °F 19.4 °F 93% 29.85 in 1.5 mi West 20.7 mph 27.6 mph N/A Snow Light Snow
2:15 AM 21.2 °F 6.0 °F 19.4 °F 93% 29.86 in 1.5 mi WNW 19.6 mph 29.9 mph N/A Snow Light Snow
2:35 AM 23.0 °F 9.2 °F 19.4 °F 86% 29.87 in 1.8 mi WNW 17.3 mph 27.6 mph N/A Snow Light Snow
2:55 AM 23.0 °F 8.0 °F 19.4 °F 86% 29.88 in 1.5 mi WNW 20.7 mph 27.6 mph N/A Snow Light Snow
3:15 AM 23.0 °F 9.2 °F 19.4 °F 86% 29.89 in 1.5 mi WNW 17.3 mph 27.6 mph N/A Snow Light Snow
3:35 AM 23.0 °F 9.2 °F 19.4 °F 86% 29.90 in 1.0 mi WNW 17.3 mph 21.9 mph N/A Snow Light Snow
3:55 AM 21.2 °F 6.0 °F 19.4 °F 93% 29.91 in 1.8 mi WNW 19.6 mph 27.6 mph N/A Snow Light Snow
4:15 AM 21.2 °F 5.6 °F 17.6 °F 86% 29.92 in 3.0 mi NW 20.7 mph 29.9 mph N/A Snow Light Snow
4:35 AM 21.2 °F 6.0 °F 17.6 °F 86% 29.93 in 3.0 mi NW 19.6 mph 28.8 mph N/A Snow Light Snow
4:55 AM 21.2 °F 5.6 °F 19.4 °F 93% 29.94 in 2.0 mi NW 20.7 mph 28.8 mph N/A Snow Light Snow
5:15 AM 21.2 °F 5.6 °F 17.6 °F 86% 29.95 in 2.5 mi NW 20.7 mph 28.8 mph N/A Snow Light Snow
5:35 AM 21.2 °F 5.2 °F 17.6 °F 86% 29.96 in 2.0 mi NW 21.9 mph 29.9 mph N/A Snow Light Snow
5:55 AM 21.2 °F 4.9 °F 17.6 °F 86% 29.97 in 2.0 mi NW 23.0 mph 27.6 mph N/A Snow Light Snow
6:15 AM 21.2 °F 6.4 °F 17.6 °F 86% 29.98 in 2.5 mi NW 18.4 mph 26.5 mph N/A Snow Light Snow
6:35 AM 21.2 °F 3.9 °F 15.8 °F 80% 30.00 in 2.0 mi NW 26.5 mph 32.2 mph N/A Snow Light Snow
6:55 AM 21.2 °F 5.6 °F 14.0 °F 74% 30.02 in 5.0 mi NW 20.7 mph 32.2 mph N/A Snow Light Snow
7:15 AM 19.4 °F 2.5 °F 14.0 °F 80% 30.03 in 4.0 mi NW 23.0 mph 28.8 mph N/A Snow Light Snow
7:35 AM 19.4 °F 2.5 °F 14.0 °F 80% 30.05 in 3.0 mi NW 23.0 mph 29.9 mph N/A Snow Light Snow
7:55 AM 19.4 °F 3.2 °F 14.0 °F 80% 30.06 in 4.0 mi NW 20.7 mph 27.6 mph N/A Snow Light Snow
8:15 AM 19.4 °F 4.1 °F 14.0 °F 80% 30.07 in 3.0 mi NW 18.4 mph 31.1 mph N/A Snow Light Snow
8:35 AM 19.4 °F 3.2 °F 14.0 °F 80% 30.08 in 4.0 mi NW 20.7 mph 26.5 mph N/A Snow Light Snow
8:55 AM 21.2 °F 6.4 °F 15.8 °F 80% 30.09 in 3.0 mi NW 18.4 mph 27.6 mph N/A Snow Light Snow
9:15 AM 21.2 °F 5.2 °F 15.8 °F 80% 30.10 in 4.0 mi NNW 21.9 mph 27.6 mph N/A Snow Light Snow
9:35 AM 21.2 °F 7.3 °F 15.8 °F 80% 30.12 in 4.0 mi NW 16.1 mph - N/A Snow Light Snow
9:55 AM 21.2 °F 5.6 °F 15.8 °F 80% 30.13 in 4.0 mi NNW 20.7 mph 26.5 mph N/A Snow Light Snow
10:15 AM 21.2 °F 7.8 °F 15.8 °F 80% 30.15 in 5.0 mi NW 15.0 mph 27.6 mph N/A Snow Light Snow
10:35 AM 21.2 °F 5.2 °F 15.8 °F 80% 30.15 in 5.0 mi NW 21.9 mph 27.6 mph N/A Snow Light Snow
10:55 AM 23.0 °F 8.0 °F 15.8 °F 74% 30.16 in 7.0 mi NNW 20.7 mph 28.8 mph N/A Snow Light Snow
11:15 AM 23.0 °F 8.0 °F 14.0 °F 68% 30.16 in 10.0 mi NNW 20.7 mph 31.1 mph N/A Snow Light Snow
11:35 AM 23.0 °F 8.3 °F 15.8 °F 74% 30.17 in 7.0 mi NW 19.6 mph 27.6 mph N/A Snow Light Snow
11:55 AM 23.0 °F 7.6 °F 15.8 °F 74% 30.17 in 7.0 mi NW 21.9 mph 26.5 mph N/A Snow Light Snow
12:15 PM 23.0 °F 8.0 °F 14.0 °F 68% 30.18 in 10.0 mi NW 20.7 mph 32.2 mph N/A Snow Light Snow
12:35 PM 23.0 °F 9.6 °F 15.8 °F 74% 30.19 in 10.0 mi NW 16.1 mph 20.7 mph N/A Snow Light Snow
12:55 PM 23.0 °F 7.6 °F 15.8 °F 74% 30.19 in 7.0 mi NW 21.9 mph 28.8 mph N/A   Overcast
1:15 PM 23.0 °F 9.6 °F 14.0 °F 68% 30.19 in 10.0 mi NW 16.1 mph 24.2 mph N/A   Overcast
1:35 PM 23.0 °F 9.2 °F 15.8 °F 74% 30.20 in 10.0 mi NW 17.3 mph 27.6 mph N/A Snow Light Snow
1:55 PM 23.0 °F 8.7 °F 15.8 °F 74% 30.20 in 10.0 mi NW 18.4 mph 27.6 mph N/A Snow Light Snow
2:15 PM 23.0 °F 8.3 °F 15.8 °F 74% 30.21 in 10.0 mi NW 19.6 mph 25.3 mph N/A Snow Light Snow
2:35 PM 23.0 °F 8.0 °F 14.0 °F 68% 30.22 in 10.0 mi NW 20.7 mph 28.8 mph N/A   Overcast
2:55 PM 23.0 °F 9.6 °F 15.8 °F 74% 30.23 in 10.0 mi NW 16.1 mph 20.7 mph N/A Snow Light Snow
3:15 PM 23.0 °F 11.1 °F 15.8 °F 74% 30.23 in 10.0 mi NW 12.7 mph 21.9 mph N/A   Overcast
3:35 PM 23.0 °F 8.7 °F 14.0 °F 68% 30.23 in 10.0 mi NNW 18.4 mph 21.9 mph N/A   Overcast
3:55 PM 23.0 °F 11.1 °F 14.0 °F 68% 30.24 in 10.0 mi NW 12.7 mph 20.7 mph N/A   Overcast
4:15 PM 23.0 °F 10.6 °F 15.8 °F 74% 30.25 in 10.0 mi NW 13.8 mph 18.4 mph N/A   Overcast
4:35 PM 23.0 °F 11.1 °F 15.8 °F 74% 30.25 in 10.0 mi NW 12.7 mph 16.1 mph N/A   Overcast
4:55 PM 21.2 °F 7.3 °F 14.0 °F 74% 30.26 in 10.0 mi NNW 16.1 mph 23.0 mph N/A   Overcast
5:15 PM 21.2 °F 8.3 °F 14.0 °F 74% 30.27 in 10.0 mi NW 13.8 mph - N/A   Overcast
5:35 PM 21.2 °F 8.9 °F 14.0 °F 74% 30.28 in 10.0 mi NW 12.7 mph 20.7 mph N/A   Overcast
5:55 PM 21.2 °F 7.3 °F 14.0 °F 74% 30.28 in 10.0 mi NW 16.1 mph 20.7 mph N/A   Overcast
6:15 PM 21.2 °F 8.9 °F 14.0 °F 74% 30.28 in 10.0 mi NW 12.7 mph - N/A   Overcast
6:35 PM 21.2 °F 7.8 °F 14.0 °F 74% 30.28 in 10.0 mi NW 15.0 mph - N/A Snow Light Snow
6:55 PM 21.2 °F 7.8 °F 14.0 °F 74% 30.28 in 10.0 mi NNW 15.0 mph 25.3 mph N/A Snow Light Snow
7:15 PM 21.2 °F 8.3 °F 14.0 °F 74% 30.28 in 10.0 mi NNW 13.8 mph 23.0 mph N/A   Overcast
7:35 PM 21.2 °F 9.5 °F 14.0 °F 74% 30.28 in 10.0 mi NNW 11.5 mph - N/A Snow Light Snow
7:55 PM 21.2 °F 7.8 °F 14.0 °F 74% 30.28 in 10.0 mi NNW 15.0 mph - N/A Snow Light Snow
8:15 PM 19.4 °F 6.0 °F 14.0 °F 80% 30.28 in 10.0 mi NNW 13.8 mph 20.7 mph N/A Snow Light Snow
8:35 PM 19.4 °F 7.9 °F 14.0 °F 80% 30.28 in 10.0 mi NNW 10.4 mph - N/A Snow Light Snow
8:55 PM 19.4 °F 7.9 °F 14.0 °F 80% 30.27 in 7.0 mi NNW 10.4 mph - N/A Snow Light Snow
9:15 PM 19.4 °F 8.6 °F 14.0 °F 80% 30.28 in 10.0 mi NW 9.2 mph - N/A Snow Light Snow
9:35 PM 19.4 °F 9.5 °F 12.2 °F 74% 30.28 in 10.0 mi NW 8.1 mph - N/A Snow Light Snow
9:55 PM 19.4 °F 7.2 °F 12.2 °F 74% 30.28 in 10.0 mi NW 11.5 mph 16.1 mph N/A Snow Light Snow
10:15 PM 19.4 °F 6.0 °F 12.2 °F 74% 30.27 in 7.0 mi NNW 13.8 mph - N/A Snow Light Snow
10:35 PM 19.4 °F 7.2 °F 12.2 °F 74% 30.28 in 10.0 mi NNW 11.5 mph - N/A Snow Light Snow
10:55 PM 17.6 °F 5.0 °F 10.4 °F 73% 30.28 in 10.0 mi NW 11.5 mph 20.7 mph N/A Snow Light Snow
11:15 PM 17.6 °F 3.2 °F 10.4 °F 73% 30.27 in 10.0 mi North 15.0 mph 18.4 mph N/A Snow Light Snow
11:35 PM 17.6 °F 6.4 °F 10.4 °F 73% 30.27 in 10.0 mi North 9.2 mph 18.4 mph N/A Snow Light Snow
11:55 PM 15.8 °F 3.4 °F 8.6 °F 73% 30.27 in 10.0 mi North 10.4 mph - N/A   Overcast